FW7706 Weather Reports


time (UTC)temp
F
wind
direction
speed
knots
gust
knots
rain 1hr
in
rain 24hr
in
rain mn
in
humidity
%
barometer
mb
20260505153101 0 213 4.3 6.1 0.00 0.00 0.00 1006.4
20260505152557 0 204 2.6 4.3 0.00 0.00 0.00 1006.0
20260505152053 0 211 3.5 5.2 0.00 0.00 0.00 1005.7
20260505151548 0 219 3.5 5.2 0.00 0.00 0.00 1006.0
20260505151046 0 199 2.6 4.3 0.00 0.00 0.00 1006.4
20260505150542 0 173 3.5 5.2 0.00 0.00 0.00 1005.7
20260505140507 0 184 3.5 6.1 0.00 0.00 0.00 1006.0
20260505124921 0 207 1.7 2.6 0.00 0.00 0.00 1005.7
20260505124417 0 216 2.6 4.3 0.00 0.00 0.00 1005.7
20260505123914 0 185 4.3 6.1 0.00 0.00 0.00 1005.3
20260505123410 0 192 2.6 4.3 0.00 0.00 0.00 1005.7
20260505122906 0 196 2.6 4.3 0.00 0.00 0.00 1005.3
20260505122404 0 186 2.6 4.3 0.00 0.00 0.00 1005.7
20260505121900 0 171 3.5 4.3 0.00 0.00 0.00 1005.7
20260505121357 0 178 1.7 2.6 0.00 0.00 0.00 1005.7
20260505120853 0 192 1.7 1.7 0.00 0.00 0.00 1005.7
20260505120349 0 208 0.9 0.9 0.00 0.00 0.00 1005.7
20260505115848 0 215 3.5 6.1 0.00 0.00 0.00 1005.3
20260505115346 0 228 0.9 1.7 0.00 0.00 0.00 1005.3
20260505114843 0 224 1.7 1.7 0.00 0.00 0.00 1005.3
20260505114340 0 215 1.7 1.7 0.00 0.00 0.00 1005.7
20260505113836 0 200 2.6 2.6 0.00 0.00 0.00 1005.0
20260505113333 0 169 2.6 2.6 0.00 0.00 0.00 1005.3
20260505112828 0 205 1.7 2.6 0.00 0.00 0.00 1005.3
20260505112326 0 187 1.7 1.7 0.00 0.00 0.00 1005.3
20260505111821 0 228 4.3 5.2 0.00 0.00 0.00 1005.3
20260505111317 0 212 2.6 2.6 0.00 0.00 0.00 1005.0
20260505110813 0 207 3.5 4.3 0.00 0.00 0.00 1005.0
20260505110311 0 191 1.7 2.6 0.00 0.00 0.00 1005.0
20260505101745 0 197 1.7 1.7 0.00 0.00 0.00 1005.0
20260505101241 0 199 2.6 2.6 0.00 0.00 0.00 1005.3
20260505100738 0 178 3.5 5.2 0.00 0.00 0.00 1005.3
20260505100234 0 177 3.5 5.2 0.00 0.00 0.00 1005.3
20260505095729 0 208 4.3 6.1 0.00 0.00 0.00 1005.3
20260505095228 0 210 3.5 6.1 0.00 0.00 0.00 1005.7
20260505094723 0 173 2.6 4.3 0.00 0.00 0.00 1005.3
20260505094220 0 209 1.7 1.7 0.00 0.00 0.00 1005.3
20260505093716 0 212 1.7 1.7 0.00 0.00 0.00 1005.3
20260505093214 0 184 2.6 4.3 0.00 0.00 0.00 1005.3
20260505092710 0 252 4.3 5.2 0.00 0.00 0.00 1005.3
20260505092209 0 224 2.6 2.6 0.00 0.00 0.00 1005.3
20260505091706 0 189 3.5 5.2 0.00 0.00 0.00 1005.7
20260505091204 0 175 2.6 2.6 0.00 0.00 0.00 1005.3
20260505090701 0 189 2.6 2.6 0.00 0.00 0.00 1005.7
20260505090159 0 208 1.7 1.7 0.00 0.00 0.00 1005.7
20260505085656 0 200 2.6 2.6 0.00 0.00 0.00 1005.3
20260505085155 0 197 2.6 4.3 0.00 0.00 0.00 1005.7
20260505084652 0 173 3.5 4.3 0.00 0.00 0.00 1005.3
20260505084150 0 181 5.2 6.1 0.00 0.00 0.00 1005.3
20260505083647 0 187 2.6 4.3 0.00 0.00 0.00 1005.3
20260505083144 0 225 1.7 1.7 0.00 0.00 0.00 1005.3
20260505082639 0 202 2.6 2.6 0.00 0.00 0.00 1005.7
20260505082137 0 185 2.6 4.3 0.00 0.00 0.00 1005.7
20260505081632 0 168 4.3 6.1 0.00 0.00 0.00 1005.7
20260505081131 0 222 1.7 1.7 0.00 0.00 0.00 1005.7
20260505080627 0 196 1.7 1.7 0.00 0.00 0.00 1005.7
20260505080123 0 183 1.7 2.6 0.00 0.00 0.00 1006.0
20260505075620 0 168 2.6 4.3 0.00 0.00 0.00 1006.0
20260505075116 0 220 3.5 5.2 0.00 0.00 0.00 1005.7
20260505074613 0 179 2.6 4.3 0.00 0.00 0.00 1006.0
20260505074110 0 163 4.3 5.2 0.00 0.00 0.00 1006.0
20260505073608 0 196 2.6 4.3 0.00 0.00 0.00 1006.0
20260505073106 0 200 3.5 4.3 0.00 0.00 0.00 1006.0
20260505072601 0 235 2.6 2.6 0.00 0.00 0.00 1006.0
20260505072058 0 227 1.7 1.7 0.00 0.00 0.00 1006.4
20260505071553 0 201 2.6 2.6 0.00 0.00 0.00 1006.4
20260505071052 0 191 1.7 2.6 0.00 0.00 0.00 1006.0
20260505070548 0 190 2.6 5.2 0.00 0.00 0.00 1006.0
20260505070044 0 193 4.3 7.0 0.00 0.00 0.00 1006.0
20260505065540 0 181 0.9 1.7 0.00 0.00 0.00 1006.4
20260505065037 0 141 2.6 2.6 0.00 0.00 0.00 1006.8
20260505064534 0 205 2.6 2.6 0.00 0.00 0.00 1006.4
20260505064033 0 190 2.6 2.6 0.00 0.00 0.00 1006.8
20260505063530 0 185 2.6 2.6 0.00 0.00 0.00 1006.8
20260505063025 0 214 2.6 2.6 0.00 0.00 0.00 1006.8
20260505062522 0 196 2.6 2.6 0.00 0.00 0.00 1006.8
20260505062020 0 189 1.7 2.6 0.00 0.00 0.00 1006.8
20260505061517 0 230 2.6 4.3 0.00 0.00 0.00 1006.8
20260505061015 0 174 2.6 4.3 0.00 0.00 0.00 1006.8
20260505060512 0 175 2.6 4.3 0.00 0.00 0.00 1007.1
20260505060009 0 204 2.6 2.6 0.00 0.00 0.00 1007.1
20260505055504 0 191 3.5 4.3 0.00 0.00 0.00 1007.1
20260505055001 0 200 1.7 1.7 0.00 0.00 0.00 1006.8
20260505054458 0 192 1.7 1.7 0.00 0.00 0.00 1006.8
20260505053956 0 205 4.3 5.2 0.00 0.00 0.00 1006.8
20260505053453 0 200 1.7 2.6 0.00 0.00 0.00 1007.5
20260505052950 0 254 1.7 2.6 0.00 0.00 0.00 1007.1
20260505052447 0 190 2.6 4.3 0.00 0.00 0.00 1007.1
20260505051944 0 192 1.7 2.6 0.00 0.00 0.00 1007.1
20260505051441 0 184 1.7 1.7 0.00 0.00 0.00 1007.1
20260505050939 0 182 0.9 1.7 0.00 0.00 0.00 1007.5
20260505050437 0 179 3.5 5.2 0.00 0.00 0.00 1007.5
20260505041405 0 176 2.6 2.6 0.00 0.00 0.00 1007.5
20260505040901 0 140 3.5 7.0 0.00 0.00 0.00 1007.5
20260505040359 0 167 1.7 2.6 0.00 0.00 0.00 1007.8
20260505035855 0 199 2.6 2.6 0.00 0.00 0.00 1007.8
20260505035351 0 194 1.7 1.7 0.00 0.00 0.00 1007.8
20260505034849 0 229 2.6 2.6 0.00 0.00 0.00 1007.8
20260505034345 0 182 2.6 4.3 0.00 0.00 0.00 1008.1
20260505033843 0 188 2.6 2.6 0.00 0.00 0.00 1007.8
20260505033339 0 183 3.5 5.2 0.00 0.00 0.00 1007.5
20260505032838 0 185 2.6 4.3 0.00 0.00 0.00 1007.8
20260505032334 0 198 1.7 2.6 0.00 0.00 0.00 1007.8
20260505031831 0 180 2.6 2.6 0.00 0.00 0.00 1007.8
20260505031327 0 182 2.6 2.6 0.00 0.00 0.00 1007.8
20260505030825 0 181 2.6 2.6 0.00 0.00 0.00 1007.8
20260505030321 0 202 1.7 1.7 0.00 0.00 0.00 1008.1
20260505025816 0 190 1.7 1.7 0.00 0.00 0.00 1008.1
20260505025314 0 178 3.5 4.3 0.00 0.00 0.00 1008.1
20260505024812 0 204 1.7 1.7 0.00 0.00 0.00 1008.1
20260505024310 0 169 0.9 1.7 0.00 0.00 0.00 1008.1
20260505023807 0 169 2.6 2.6 0.00 0.00 0.00 1008.1
20260505023304 0 178 2.6 2.6 0.00 0.00 0.00 1007.8
20260505022801 0 176 1.7 1.7 0.00 0.00 0.00 1007.8
20260505022258 0 174 1.7 1.7 0.00 0.00 0.00 1007.8
20260505021755 0 140 3.5 4.3 0.00 0.00 0.00 1007.8
20260505021251 0 171 1.7 2.6 0.00 0.00 0.00 1007.5
20260505020747 0 178 2.6 2.6 0.00 0.00 0.00 1007.8
20260505020243 0 199 3.5 4.3 0.00 0.00 0.00 1007.5
20260505015740 0 192 1.7 1.7 0.00 0.00 0.00 1007.8
20260505015237 0 191 1.7 2.6 0.00 0.00 0.00 1007.8
20260505014734 0 198 1.7 1.7 0.00 0.00 0.00 1007.5
20260505014232 0 198 2.6 2.6 0.00 0.00 0.00 1007.5
20260505013728 0 183 1.7 1.7 0.00 0.00 0.00 1007.5
20260505013225 0 183 2.6 2.6 0.00 0.00 0.00 1007.5
20260505012723 0 216 2.6 4.3 0.00 0.00 0.00 1007.5
20260505012220 0 194 2.6 2.6 0.00 0.00 0.00 1007.5
20260505011716 0 174 1.7 1.7 0.00 0.00 0.00 1007.8
20260505011214 0 185 1.7 2.6 0.00 0.00 0.00 1007.5
20260505010708 0 214 1.7 1.7 0.00 0.00 0.00 1007.8
20260505010206 0 205 0.9 0.9 0.00 0.00 0.00 1007.5
20260505005702 0 190 1.7 1.7 0.00 0.00 0.00 1007.8
20260505005159 0 190 2.6 2.6 0.00 0.00 0.00 1007.5
20260505004656 0 176 2.6 2.6 0.00 0.00 0.00 1007.5
20260505004152 0 197 1.7 1.7 0.00 0.00 0.00 1007.5
20260505003649 0 185 1.7 1.7 0.00 0.00 0.00 1007.8
20260505003147 0 185 0.9 1.7 0.00 0.00 0.00 1007.5
20260505002643 0 198 0.9 1.7 0.00 0.00 0.00 1007.5
20260505002141 0 183 0.9 1.7 0.00 0.00 0.00 1007.8
20260505001638 0 182 1.7 1.7 0.00 0.00 0.00 1007.5
20260505001136 0 185 3.5 4.3 0.00 0.00 0.00 1007.8
20260505000633 0 177 1.7 1.7 0.00 0.00 0.00 1007.8
20260505000131 0 181 1.7 1.7 0.00 0.00 0.00 1007.8
20260504235627 0 192 2.6 4.3 0.00 0.00 0.00 1007.5
20260504235123 0 209 2.6 2.6 0.00 0.00 0.00 1007.8
20260504234621 0 187 3.5 4.3 0.00 0.00 0.00 1007.8
20260504234118 0 197 2.6 4.3 0.00 0.00 0.00 1008.1
20260504233614 0 197 2.6 2.6 0.00 0.00 0.00 1008.1
20260504233110 0 194 2.6 4.3 0.00 0.00 0.00 1007.8
20260504232607 0 223 2.6 4.3 0.00 0.00 0.00 1008.1
20260504232104 0 180 2.6 2.6 0.00 0.00 0.00 1008.1
20260504231601 0 192 4.3 5.2 0.00 0.00 0.00 1008.1
20260504231057 0 203 2.6 2.6 0.00 0.00 0.00 1008.5
20260504230553 0 178 1.7 1.7 0.00 0.00 0.00 1008.5
20260504230052 0 178 3.5 4.3 0.00 0.00 0.00 1008.5
20260504225549 0 234 4.3 5.2 0.00 0.00 0.00 1008.5
20260504225046 0 190 3.5 5.2 0.00 0.00 0.00 1008.5
20260504224543 0 199 5.2 6.1 0.00 0.00 0.00 1008.5
20260504224040 0 172 4.3 6.1 0.00 0.00 0.00 1008.5
20260504223537 0 149 3.5 5.2 0.00 0.00 0.00 1008.5
20260504223032 0 217 4.3 6.1 0.00 0.00 0.00 1008.5
20260504222530 0 174 5.2 6.1 0.00 0.00 0.00 1008.5
20260504222027 0 214 1.7 1.7 0.00 0.00 0.00 1008.5
20260504221524 0 179 5.2 7.0 0.00 0.00 0.00 1008.5
20260504221021 0 182 2.6 4.3 0.00 0.00 0.00 1008.8
20260504220517 0 173 2.6 5.2 0.00 0.00 0.00 1008.5
20260504220015 0 173 4.3 6.1 0.00 0.00 0.00 1008.8
20260504215511 0 176 4.3 5.2 0.00 0.00 0.00 1009.2
20260504215008 0 242 1.7 1.7 0.00 0.00 0.00 1009.2
20260504214504 0 214 1.7 2.6 0.00 0.00 0.00 1009.2
20260504214001 0 209 1.7 2.6 0.00 0.00 0.00 1009.2
20260504213456 0 245 2.6 4.3 0.00 0.00 0.00 1009.2
20260504212955 0 204 2.6 4.3 0.00 0.00 0.00 1009.5
20260504212450 0 221 1.7 2.6 0.00 0.00 0.00 1009.5
20260504211948 0 162 1.7 1.7 0.00 0.00 0.00 1009.2
20260504211444 0 188 2.6 5.2 0.00 0.00 0.00 1009.8
20260504210942 0 154 2.6 2.6 0.00 0.00 0.00 1009.8
20260504210438 0 238 2.6 4.3 0.00 0.00 0.00 1009.8
20260504205935 0 197 3.5 5.2 0.00 0.00 0.00 1009.8
20260504205433 0 202 1.7 1.7 0.00 0.00 0.00 1010.2
20260504204931 0 189 2.6 2.6 0.00 0.00 0.00 1009.8
20260504204429 0 171 4.3 6.1 0.00 0.00 0.00 1010.2
20260504203928 0 165 4.3 5.2 0.00 0.00 0.00 1009.8
20260504203425 0 173 1.7 2.6 0.00 0.00 0.00 1010.2
20260504202921 0 193 2.6 2.6 0.00 0.00 0.00 1010.5
20260504202418 0 210 1.7 4.3 0.00 0.00 0.00 1010.5
20260504201914 0 194 0.9 0.9 0.00 0.00 0.00 1010.5
20260504201412 0 216 2.6 2.6 0.00 0.00 0.00 1010.8
20260504200909 0 209 2.6 2.6 0.00 0.00 0.00 1010.8
20260504200406 0 195 3.5 4.3 0.00 0.00 0.00 1010.8
20260504195903 0 174 4.3 6.1 0.00 0.00 0.00 1011.2
20260504195358 0 180 3.5 4.3 0.00 0.00 0.00 1011.2
20260504194855 0 202 3.5 6.1 0.00 0.00 0.00 1011.2
20260504194351 0 195 2.6 2.6 0.00 0.00 0.00 1011.5
20260504193847 0 185 4.3 5.2 0.00 0.00 0.00 1011.2
20260504193344 0 229 2.6 4.3 0.00 0.00 0.00 1011.5
20260504192843 0 155 2.6 4.3 0.00 0.00 0.00 1011.5
20260504192340 0 188 4.3 6.1 0.00 0.00 0.00 1011.9
20260504191839 0 204 1.7 2.6 0.00 0.00 0.00 1011.9
20260504191336 0 191 3.5 4.3 0.00 0.00 0.00 1011.9
20260504190831 0 182 4.3 6.1 0.00 0.00 0.00 1011.9
20260504190327 0 187 2.6 4.3 0.00 0.00 0.00 1011.9
20260504185824 0 208 1.7 2.6 0.00 0.00 0.00 1012.2
20260504185321 0 200 4.3 6.1 0.00 0.00 0.00 1012.2
20260504184817 0 205 6.1 7.0 0.00 0.00 0.00 1012.2
20260504184313 0 163 6.1 7.0 0.00 0.00 0.00 1012.2
20260504183809 0 244 4.3 7.0 0.00 0.00 0.00 1012.2
20260504183307 0 182 4.3 6.1 0.00 0.00 0.00 1012.5
20260504182804 0 177 2.6 4.3 0.00 0.00 0.00 1012.9
20260504182301 0 231 2.6 4.3 0.00 0.00 0.00 1012.5
20260504181759 0 186 4.3 6.1 0.00 0.00 0.00 1012.9
20260504181256 0 209 4.3 6.1 0.00 0.00 0.00 1012.5
20260504180755 0 174 3.5 4.3 0.00 0.00 0.00 1012.9
20260504180253 0 194 1.7 2.6 0.00 0.00 0.00 1012.9
20260504175750 0 215 2.6 4.3 0.00 0.00 0.00 1013.2
20260504175247 0 138 3.5 5.2 0.00 0.00 0.00 1013.2
20260504174745 0 163 4.3 6.1 0.00 0.00 0.00 1013.2
20260504174243 0 169 3.5 5.2 0.00 0.00 0.00 1013.2
20260504173739 0 217 2.6 4.3 0.00 0.00 0.00 1013.6
20260504173236 0 232 4.3 5.2 0.00 0.00 0.00 1014.0
20260504172733 0 149 3.5 6.1 0.00 0.00 0.00 1014.0
20260504172229 0 190 3.5 5.2 0.00 0.00 0.00 1013.6
20260504171726 0 269 3.5 5.2 0.00 0.00 0.00 1014.0
20260504171223 0 269 3.5 4.3 0.00 0.00 0.00 1014.0
20260504170720 0 189 3.5 5.2 0.00 0.00 0.00 1014.0
20260504170217 0 227 2.6 5.2 0.00 0.00 0.00 1014.0
20260504160135 0 215 2.6 4.3 0.00 0.00 0.00 1014.3